Adair Village, OR

3:46 AM PST on February 09, 2016 (GMT -0800)
North Corvallis | | Change Station
CLOSE
Current Station
Personal Weather Station
Location: Corvallis, OR
Elevation: 236 ft
Nearby Weather Stations
Active Advisory: Dense Fog Advisory Active Notice: Record Report

Elev 236 ft 44.59 °N, 123.26 °W | Updated 3 minutes ago

Clear
Clear
33.1 °F
Feels Like 33 °F
N
0.0
Wind Variable Wind from SSE

Today
High -- | Low -- °F
--% Chance of Precip.
Yesterday
High -- | Low -- °F
Precip. -- in
Pressure 30.21 in
Visibility 1.5 miles
Clouds Clear
Windchill 33 °F
Dew Point 32 °F
Humidity 97%
Rainfall 0.00 in
Snow Depth Not available.
7:22 AM 5:32 PM
New Moon, 1% visible
METAR KCVO 091135Z 00000KT 1 1/2SM CLR 03/02 A3021 RMK AO1 VIS 1V3
Pressure 30.21 in
Visibility 1.5 miles
Clouds Clear
Windchill 33 °F
Dew Point 32 °F
Humidity 97%
Rainfall 0.00 in
Snow Depth Not available.
7:22 AM 5:32 PM
New Moon, 1% visible
METAR KCVO 091135Z 00000KT 1 1/2SM CLR 03/02 A3021 RMK AO1 VIS 1V3

10-Day Weather Forecast

Almanac

Astronomy

Feb. 09, 2016 Rise Set
Actual Time
Civil Twilight
Nautical Twilight
Astronomical Twilight
Moon
Length of Visible Light
Length of Day
Tomorrow will be .
, % of the Moon is Illuminated

Today's Extremes

State Highs State Lows

Community

WunderPhotos

Upload Photos

1,891,565 photos uploaded!

WunderBlog® & News

Nearby

Air Quality

  Air Quality AQ Index Pollutant
Not available.

Snow Depth

Station Depth Elevation

Earthquake Activity

City Distance Mag. Time & Date
Minimum magnitude displayed is 2.5.

Coastal Water Temperatures

Place Temperature

Stations

Nearby Weather Stations

Station Location Temp. Windchill Dew Point Humidity Wind Precip. Elev Updated Type
                   

Watches & Warnings

Dense Fog Advisory
Issued: 2:52 AM PST Feb. 9, 2016 – National Weather Service

... Dense fog advisory in effect until 11 am this morning for the
south Willamette Valley...

The National Weather Service in Portland has issued a dense fog
advisory... which is in effect until 11 am PST this morning.

* Visibility: generally one quarter to one half of a mile... but
expect areas where visibilities will be well less than a quarter
of a mile.

* Timing: through 11 am this morning. Fog will gradually thin
afterwards.

* Locations include: Eugene... Springfield... Corvallis...
Albany... Lebanon.

Precautionary/preparedness actions...

A dense fog advisory means visibilities will frequently be
reduced to less than one quarter mile. If driving... slow down...
use your headlights... and leave plenty of distance ahead of you.